Regional Weather Roundup
Issued by NWS Boston, MA

Current Version | Previous Version | Text Only | Print | Product List | Glossary Off
Versions: 1 2 3 4 5 6 7 8 9 10 11 12 13 14 15 16 17 18 19 20 21 22 23 24 25 26 27 28 29 30 31 32 33 34 35 36 37 38 39 40 41 42 43 44 45 46 47 48 49 50
000 ASUS41 KBOX 211410 RWRBOX REGIONAL WEATHER ROUNDUP NATIONAL WEATHER SERVICE TAUNTON MA 1000 AM EDT THU SEP 21 2017 NOTE: "FAIR" INDICATES FEW OR NO CLOUDS BELOW 12,000 FEET WITH NO SIGNIFICANT WEATHER AND/OR OBSTRUCTIONS TO VISIBILITY. MAZALL-211500- EASTERN MASSACHUSETTS CITY SKY/WX TMP DP RH WIND PRES REMARKS BOSTON CLOUDY 68 59 73 N26G35 30.00R BEVERLY CLOUDY 68 58 70 N18G31 30.01R LAWRENCE CLOUDY 71 59 65 N20 30.06R BEDFORD PTSUNNY 69 57 65 N18G25 30.01R BLUE HILL N/A 66 57 72 NE18G37 29.99R NORWOOD CLOUDY 71 60 68 N14G24 29.98S MARSHFIELD CLOUDY 64 59 82 N12G23 29.97R PLYMOUTH NOT AVBL TAUNTON CLOUDY 67 58 72 N13G32 29.96R NEW BEDFORD CLOUDY 66 59 78 N17G32 29.92R $$ MAZALL-211500- CAPE COD AND THE ISLANDS CITY SKY/WX TMP DP RH WIND PRES REMARKS FALMOUTH NOT AVBL HYANNIS LGT RAIN 62 60 93 N23G32 29.86R FOG CHATHAM CLOUDY 64 61 90 N17G33 29.85R PROVINCETOWN CLOUDY 62 57 83 N23G32 29.92R NANTUCKET LGT RAIN 64 64 100 N36G46 29.77R FOG MARTHAS VNYRD LGT RAIN 64 61 90 N28G44 29.86R FOG $$ MAZALL-211500- CENTRAL AND WESTERN MASSACHUSETTS CITY SKY/WX TMP DP RH WIND PRES REMARKS WORCESTER CLOUDY 66 57 72 N17G26 30.05R FITCHBURG CLOUDY 72 61 68 N8G20 30.06R ORANGE PTSUNNY 70 62 76 N10 30.06R SPRINGFIELD PTSUNNY 71 61 71 NE13 30.02R WESTFIELD PTSUNNY 73 62 68 N15G23 30.03R NORTH ADAMS MOSUNNY 71 62 73 W8 30.08S PITTSFIELD MOSUNNY 72 60 66 NE10 30.08R $$ RIZALL-211500- RHODE ISLAND CITY SKY/WX TMP DP RH WIND PRES REMARKS PROVIDENCE CLOUDY 71 62 73 NE22G30 29.96R NEWPORT CLOUDY 68 62 81 N24G39 29.93R BLOCK ISLAND CLOUDY 70 63 78 N20G35 29.92R SMITHFIELD CLOUDY 68 62 81 NE18 29.99R WESTERLY CLOUDY 72 62 71 N14G28 29.94R $$ CTZALL-211500- CONNECTICUT CITY SKY/WX TMP DP RH WIND PRES REMARKS BRADLEY INTL CLOUDY 72 63 73 N13G22 30.03R HARTFORD CLOUDY 72 63 73 N16 30.01R BRIDGEPORT PTSUNNY 74 62 66 N16G29 29.99R DANBURY MOSUNNY 75 63 66 N14 30.04R GROTON CLOUDY 72 62 71 N14G26 29.94R NEW HAVEN CLOUDY 73 62 68 N16G25 29.99R CHESTER PTSUNNY 72 63 73 N10G21 29.98S MERIDEN CLOUDY 72 61 68 N8G22 30.00R WILLIMANTIC CLOUDY 72 62 71 N14G29 29.99R OXFORD PTSUNNY 70 62 76 N14G24 30.04R $$ MEZ002-015-021-024-NHZ003-005-008-011-012-014-VTZ005-008-211500- NORTHERN NEW ENGLAND CITY SKY/WX TMP DP RH WIND PRES REMARKS PORTLAND ME CLOUDY 69 55 60 N13G22 30.08R BANGOR ME CLOUDY 65 52 62 NE14 30.13R CONCORD NH PTSUNNY 71 59 65 N7 30.07R MANCHESTER NH CLOUDY 71 58 63 N9G20 30.05R NASHUA NH PTSUNNY 70 61 73 N7 30.06R PORTSMOUTH NH PTSUNNY 69 57 67 N13G18 30.05R JAFFREY NH PTSUNNY 68 61 78 VRB7 30.09R KEENE NH CLOUDY 71 62 73 N12 30.07S BURLINGTON VT CLOUDY 63 59 87 NW5 30.13S MT. WASHINGTON NOT AVBL $$ NYZ052-076-211500- EASTERN NEW YORK CITY SKY/WX TMP DP RH WIND PRES REMARKS ALBANY PTSUNNY 69 62 78 N12 30.09S NEW YORK CITY PTSUNNY 75 65 70 N14 30.01R $$ ANZALL-211500- MARINE OBSERVATIONS STATION/POSITION TIME TEMP WIND PRES VSBY WAVE AIR SEA DIR/SP/G HT/PER (UTC) (F) (DEG/KT/KT) (MB) (MI) (FT/S) BOSTON BUOY 1350 63 60 20/ 25/ 31 1014.5R 11/ 8 BUZZARDS BAY 1400 67 10/ 34/ 36 1011.6R NANTUCKET SOUND 1350 63 61 10/ 29/ 35 1008.8R 6/ 5 MASS BAY-STELLWA 1304 64 62 20/ 23/ 29 1014.2R 10/11 ISLE OF SHOALS 1400 64 20/ 26/ 29 1016.5R S OF BLOCK IS NOT AVBL $$ ......................KEY......................... SKY/WX - SKY CONDITION/PRESENT WEATHER TMP - TEMPERATURE IN FAHRENHEIT DWPT - DEWPOINT IN FAHRENHEIT RH - RELATIVE HUMIDITY IN PERCENT WIND - DIRECTION AND SPEED IN MPH PRES - MEAN SEA LEVEL PRESSURE IN INCHES OF HG WCI - WIND CHILL INDEX VSB - VISIBILITY IN MILES HX - HEAT INDEX TC - TEMPERATURE IN CELSIUS VRB - VARIABLE WIND DIRECTION N/A - NOT AVAILABLE

USA.gov is the U.S. government's official web portal to all federal, state and local government web resources and services.